Home   Weather   Denali   Past weeks
Flag for USA

Past Weather in Denali, Alaska, USA — Yesterday and Last 2 Weeks

Now
21 °F

Light snow. Ice fog.


Feels Like: 21 °F
Forecast: 25 / 16 °F
Wind: No wind

Location: Wainwright U. S. Army Airfield
Current Time: Oct 20, 2020 at 3:32:03 pm
Latest Report: Oct 20, 2020 at 2:58 pm
Visibility: 6 mi
Pressure30.58 "Hg
Humidity: 85%
Dew Point: 17 °F
Location of DenaliLocation

Past Weather in Denali — Graph

°F

Denali Temperature Yesterday

Maximum temperature yesterday: 21 °F (at 2:58 pm)
Minimum temperature yesterday: 16 °F (at 9:58 am)
Average temperature yesterday: 19 °F

High & Low Weather Summary for the Past Weeks

 TemperatureHumidityPressure
High54 °F (Oct 8, 3:58 pm)100% (Oct 6, 6:13 am)30.72 "Hg (Oct 6, 6:13 am)
Low-1 °F (Oct 16, 6:58 am)33% (Oct 9, 4:58 pm)29.25 "Hg (Oct 9, 4:58 pm)
Average29 °F74%29.97 "Hg
* Reported Oct 5 2:58 pm — Oct 20 2:24 pm, Denali. Weather by CustomWeather, © 2020

Note: Actual official high and low records may vary slightly from our data, if they occured in-between our weather recording intervals... More about our weather records

Denali Weather History for the Previous 24 Hours

Scroll right to see more
 ConditionsComfort  
Time TempWeatherWind HumidityBarometerVisibility
2:24 pm
Tue, Oct 20
19 °FLight snow. Ice fog.1 mph86%30.57 "Hg5 mi
1:58 pm20 °FLight snow. More clouds than sun.1 mph84%30.56 "Hg6 mi
12:58 pm19 °FLight snow. Cloudy.2 mph85%30.54 "Hg4 mi
11:58 am18 °FLight snow. Mostly cloudy.1 mph84%30.52 "Hg4 mi
10:59 am15 °FLight snow. Mostly cloudy.3 mph84%30.50 "Hg8 mi
9:59 am14 °FMostly cloudy.2 mph87%30.46 "Hg10 mi
8:58 am14 °FSnow flurries. Mostly cloudy.1 mph86%30.44 "Hg10 mi
7:58 am15 °FOvercast.1 mph86%30.42 "Hg10 mi
6:58 am15 °FMostly cloudy.1 mph88%30.39 "Hg10 mi
5:58 am15 °FMostly cloudy.No wind89%30.37 "Hg7 mi
4:58 am16 °FIce fog.No wind89%30.35 "Hg5 mi
3:58 am12 °FIce fog.No wind87%30.33 "Hg6 mi
2:58 am14 °FIce fog.No wind92%30.31 "Hg6 mi
1:58 am17 °FIce fog.No wind94%30.29 "Hg6 mi
12:58 am19 °FLight snow. Ice fog.No wind93%30.27 "Hg5 mi
11:58 pm
Mon, Oct 19
19 °FLight snow. Partly cloudy.No wind93%30.24 "Hg3 mi
10:58 pm21 °FLight snow. Partly cloudy.No wind86%30.23 "Hg3 mi
9:58 pm21 °FLight snow. Mostly cloudy.No wind93%30.21 "Hg3 mi
8:58 pm21 °FLight snow. Ice fog.No wind86%30.20 "Hg2 mi
7:58 pm21 °FLight snow. Ice fog.No wind86%30.19 "Hg2 mi
6:58 pm21 °FLight snow. Ice fog.No wind86%30.18 "Hg2 mi
5:58 pm21 °FLight snow. Ice fog.No wind86%30.17 "Hg1 mi
4:58 pm21 °FLight snow. Ice fog.No wind86%30.16 "Hg1 mi
3:58 pm21 °FLight snow. Ice fog.1 mph86%30.16 "Hg1 mi
Weather by CustomWeather, © 2020

See weather overview